PEGASUS DEB, 39924

Orbit data source: Space-Track

PEGASUS DEB, 39924 is space debris in LEO originally from a launch on Thu, 19 May 1994 UTC launched from the Air Force Western Test Range (AFWTR). Debris objects in space refer to the collection of defunct objects orbiting the Earth. Examples of debris include non-operational satellites, rocket bodies, and fragments generated from explosions, collisions, or faulty payload assembly.

Loading next visibility...
Identifier
39924, 1994-029AFX
Orbit
LEO
Country
Flag of USUS
Related business
Manufacturer
Unknown
Mission
Spacecraft
Bus & Motor
Unknown
Mass
Unknown
Launch date (UTC)
1994-05-19 (32 years ago)
Launch vehicle
Unknown
Launch site
Air Force Western Test Range (AFWTR)
Object type
Payload
Rocket body
Debris
Shape & HBR
Unknown shape, 0.1 m
Radar Cross Section
Small (<0.1 m²)

Expand to show TLE details & history
Last TLE update: 11 hours ago

TLE from 11 hours ago
0 PEGASUS DEB
1 39924U 94029AFX 26121.95056484  .00003557  00000-0  36065-3 0  9997
2 39924  81.8559 194.0794 0107751  71.0917 290.1942 14.86332135640110
Epoch: 2026-05-01T22:48Z
TLE epoch observation values (Epoch: 2026-05-01T22:48:48.802Z)
Latitude
0.00005°
Longitude
-7.9994°
Altitude
587.153 km
Speed
7.58 km/s
True Right ascension
12h 56m 19s
True Declination
0° 00' 00"
Sunlit
Object was in full shadow at epoch
Visualization orbit readout
Latitude
Unknown
Longitude
Unknown
Altitude
Unknown
Speed
Unknown
Apparent Right ascension
Unknown
Apparent Declination
Unknown
Sunlit
N/A
Visualization observer readout
Local Sidereal Time
17:23:15
Azimuth
Unknown
Elevation
Unknown
Doppler factor
Unknown
Orbital elements
Apogee altitude
681.71 km
Perigee altitude
531.191 km
Semi-major axis
6,984.588 km
Eccentricity
0.01078
Inclination
81.8559°
RAAN
194.0794°
Arg. of periapsis
71.0917°
True anomaly
289.03003°
Mean anomaly
290.1942°
Eccentric anomaly
289.61265°
Mean motion
3.71819 °/min
Orbital period
96.82 mins
BSTAR
0.00036065
Loading maneuver chart data...
Computing Atmospheric mass density...

Documentation

Showing up to 5 results
|